Location: Gwatt
(46.7204°N, 7.6223°E)
Time: 14:25:32
(UTC+00:00)

deb Explorer IX - Pass Details

Date: 25 January 2021
Orbit: 537 x 1102 km, 38.8° (Epoch: 01 March)

Event Time Altitude Azimuth Distance (km) Brightness Sun altitude
Rises 17:42:44 0° 243° (WSW) 3,719 ? -13.7°
Reaches altitude 10° 17:45:45 10° 236° (SW) 2,689 ? -14.2°
Maximum altitude 17:51:31 36° 172° (S) 1,350 ? -15.2°
Enters shadow 17:55:10 17° 116° (ESE) 1,914 ? -15.8°
Drops below altitude 10° 17:56:32 10° 107° (ESE) 2,329 - -16.0°
Sets 17:58:59 0° 99° (E) 3,164 - -16.4°
